Location: Albany
(35.0000°S, 118.0000°E)
Time: 15:54:55
(UTC-05:00)

Cosmos 1346 Rocket - Visible Passes

Search period start: 23 January 2017 00:00
Search period end: 02 February 2017 00:00
Orbit: 525 x 559 km, 81.2° (Epoch: 23 January)

Date Brightness Start Highest point End Pass type
(mag) Time Alt. Az. Time Alt. Az. Time Alt. Az.
23 Jan 6.0 11:18:34 10° SSW 11:18:34 10° SSW 11:18:38 10° SSW visible
24 Jan 6.0 11:11:37 10° SSW 11:11:37 10° SSW 11:11:39 10° SSW visible
26 Jan 5.7 09:22:09 10° SSE 09:22:09 10° SSE 09:22:12 10° SSE visible
27 Jan 5.6 09:15:09 11° SSE 09:15:09 11° SSE 09:15:20 10° SSE visible
28 Jan 5.5 09:08:08 12° SSE 09:08:08 12° SSE 09:08:27 10° SSE visible
29 Jan 5.4 09:01:06 13° SSE 09:01:06 13° SSE 09:01:35 10° SSE visible
30 Jan 5.3 08:54:02 14° SSE 08:54:02 14° SSE 08:54:42 10° SSE visible
31 Jan 5.1 08:46:56 15° SSE 08:46:56 15° SSE 08:47:49 10° SSE visible
31 Jan 6.1 10:22:28 10° SW 10:22:28 10° SW 10:22:28 10° SW visible
01 Feb 5.0 08:39:50 17° SE 08:39:50 17° SE 08:40:56 10° SSE visible
01 Feb 6.0 10:15:21 10° SW 10:15:21 10° SW 10:15:23 10° SW visible
